Location: Ernez
(36.4595°N, 29.8755°E)
Time: 01:52:19
(UTC+00:00)

Cosmos 1025 Rocket - Pass Details

Date: 13 November 2025
Orbit: 586 x 610 km, 82.5° (Epoch: 07 December)

Event Time Altitude Azimuth Distance (km) Brightness Sun altitude
Rises 15:22:26 0° 349° (N) 2,861 6.4 -6.3°
Reaches altitude 10° 15:24:41 10° 346° (NNW) 1,950 5.6 -6.8°
Maximum altitude 15:28:56 62° 266° (W) 674 3.6 -7.6°
Drops below altitude 10° 15:33:08 10° 185° (S) 1,921 5.9 -8.4°
Sets 15:35:19 0° 182° (S) 2,814 6.7 -8.8°
